Temperature
9 9 10 12 15 17 17 17 17 18 18 17 18 19 20 20 19 19 18 16 15 14 14 15 16 16 17 17 18 18 18 17 17 17 16 15 15 14 13 13 13 13 12 12
9 9 12 14 15 16 17 17 17 18 17 17 18 18 20 21 19 18 17 16 15 14 13 14 15 16 17 17 17 17 17 17 16 16 15 15 14 13 12 12 12 12 12 12
9 11 12 13 14 15 16 17 17 17 17 17 17 19 20 19 17 15 16 15 14 14 13 13 14 15 16 16 17 17 16 16 15 15 14 14 13 12 12 12 11 11 11 11
10 13 12 12 14 15 15 17 17 16 16 17 17 17 20 20 18 16 15 14 14 13 12 12 13 14 15 15 15 15 15 15 14 13 13 13 12 12 11 11 11 11 11 11
9 12 12 12 14 15 16 16 16 15 15 16 17 17 20 20 19 17 15 14 13 12 12 12 13 14 14 14 14 14 14 14 13 12 12 12 12 11 10 10 10 10 10 10
11 12 13 13 15 15 15 15 14 14 15 15 17 17 19 21 20 18 16 14 12 11 11 11 12 13 13 13 13 13 13 13 12 12 12 11 11 10 10 10 10 10 10 9
9 11 13 14 13 13 15 14 13 13 14 16 17 17 19 20 18 18 16 14 12 11 10 10 11 12 12 12 12 12 12 12 11 11 11 11 10 10 10 10 10 9 9 8
9 10 12 13 13 12 14 15 14 15 16 17 15 17 20 18 16 15 15 14 12 11 10 10 11 11 12 12 12 11 11 11 11 11 10 10 10 10 9 9 9 8 8 7
10 11 12 13 14 14 14 14 15 16 16 17 18 18 19 16 16 15 15 14 12 11 10 10 10 11 11 11 11 10 10 10 10 10 9 9 9 9 9 8 8 7 6 6
12 11 11 11 13 12 14 15 14 14 15 17 18 18 20 19 18 15 15 13 12 11 10 9 10 10 10 10 10 10 10 10 9 9 9 8 8 8 8 7 6 5 5 4
13 12 11 12 13 12 13 14 15 15 16 17 18 19 18 18 17 16 15 14 12 11 10 9 9 10 10 10 9 9 9 9 8 8 7 7 7 7 6 5 5 4 4 3
14 14 12 13 14 15 16 15 15 15 15 16 18 19 17 16 15 14 14 13 12 11 10 9 9 10 9 9 9 8 8 8 7 7 7 6 6 5 5 4 4 3 3 2
14 14 12 12 13 13 14 16 16 16 16 16 17 19 16 15 14 13 13 12 11 10 9 9 9 9 9 8 8 8 7 7 6 6 6 5 5 4 4 3 3 2 2 1
14 15 15 15 15 15 14 15 16 16 16 16 17 19 17 16 15 14 13 12 11 10 9 9 8 8 8 8 7 7 6 6 6 5 5 4 4 3 3 2 2 1 1 1
14 15 15 15 15 15 15 15 15 15 16 17 18 18 19 18 17 15 13 12 11 10 9 8 8 8 7 7 6 6 5 5 5 4 4 3 3 2 2 1 1 1 0 0
14 14 14 13 13 14 15 15 15 15 16 17 17 18 19 17 15 14 13 12 11 10 9 8 8 7 7 6 6 5 5 4 4 4 3 2 2 2 1 1 0 -0 -0 -1
14 14 14 14 13 13 14 15 16 16 17 17 17 18 16 14 14 14 13 12 11 10 10 9 8 7 6 6 5 4 4 4 3 3 2 2 1 1 0 0 -0 -1 -1 -1
14 14 13 13 13 13 17 15 16 16 17 17 17 16 15 15 12 11 11 11 11 11 10 10 8 6 6 5 4 4 4 3 3 2 1 1 1 0 -0 -1 -1 -1 -2 -2
12 12 12 12 14 15 15 12 13 14 15 15 15 14 13 11 11 10 9 10 10 11 10 9 7 6 5 4 4 3 3 2 2 1 1 0 -0 -1 -1 -1 -1 -2 -3 -4
10 11 12 12 13 14 16 13 12 14 15 12 13 12 11 12 14 12 9 10 10 10 9 8 6 5 4 3 3 3 2 2 1 1 0 -0 -1 -1 -1 -2 -2 -3 -4 -4
11 11 12 13 14 16 14 11 12 15 16 11 11 11 11 13 12 9 9 9 9 8 8 6 5 4 3 3 2 2 2 1 1 0 -0 -1 -1 -2 -2 -3 -3 -4 -5 -5
13 12 12 13 13 14 11 11 13 13 10 10 10 10 10 9 9 8 8 8 8 7 6 5 4 3 3 2 2 1 1 0 -0 -1 -1 -1 -2 -2 -3 -3 -4 -5 -6 -6
12 14 14 14 13 10 9 11 10 10 10 9 9 10 10 9 8 8 8 7 7 6 5 4 3 3 2 2 1 0 -0 -0 -1 -1 -1 -2 -2 -3 -3 -4 -5 -5 -6 -7
9 9 10 10 10 8 7 7 8 9 10 10 10 9 9 8 8 7 7 7 6 5 4 4 3 2 1 1 -0 -1 -1 -1 -1 -1 -2 -3 -3 -4 -4 -5 -5 -6 -7 -8
10 9 10 10 9 8 7 7 8 10 10 9 9 8 8 8 7 7 6 6 5 4 3 2 2 1 0 -1 -1 -1 -1 -1 -2 -2 -3 -3 -4 -4 -5 -5 -6 -7 -8 -9
9 10 11 12 10 10 9 7 9 9 8 8 8 7 7 7 7 6 5 5 4 3 2 1 0 -0 -1 -1 -1 -1 -2 -2 -3 -3 -4 -4 -5 -5 -6 -6 -7 -8 -9 -9
Wind_Speed
17 15 21 25 27 21 18 19 18 15 8 8 13 16 17 15 11 11 9 10 9 8 7 7 8 8 10 12 13 13 13 11 10 9 9 10 10 10 11 12 15 15 15 14
14 24 23 23 25 20 17 18 17 10 5 6 12 17 17 13 9 8 12 13 13 11 10 9 10 11 12 14 14 14 14 13 12 11 10 10 11 10 10 10 13 14 14 13
22 21 22 22 24 23 20 18 16 9 4 5 7 12 10 5 3 4 9 13 13 13 13 12 12 12 13 14 14 14 15 15 14 14 11 10 9 8 8 9 9 11 13 13
21 20 22 22 26 24 20 15 11 6 4 4 2 6 8 7 6 7 11 13 14 13 13 13 13 13 13 12 13 15 16 16 14 13 12 12 10 9 7 7 7 9 11 12
15 19 22 22 26 24 14 12 8 3 4 7 9 8 8 6 8 11 14 15 14 13 13 13 12 12 12 11 12 14 16 16 14 14 13 13 11 8 6 6 7 7 8 10
13 14 19 17 20 18 12 12 7 2 3 8 10 9 7 4 3 9 16 16 16 14 13 13 12 12 12 11 11 12 15 14 13 13 13 12 11 9 8 8 7 6 6 6
12 13 13 14 15 13 14 12 6 6 7 7 5 8 8 1 1 6 17 19 17 16 15 14 14 13 12 11 11 12 13 13 12 12 12 11 10 8 8 7 7 7 6 7
12 13 15 16 14 11 16 15 8 7 8 5 6 8 4 3 1 3 13 18 17 17 15 15 14 13 12 11 11 11 12 12 11 10 10 9 8 6 6 7 6 7 6 7
12 9 10 12 12 13 13 13 5 1 2 4 6 5 5 3 2 4 13 19 19 17 16 15 13 12 11 11 10 11 11 11 9 9 8 8 8 7 6 6 6 6 6 6
9 7 9 7 9 3 7 11 7 5 5 6 5 5 3 4 1 4 15 20 20 17 16 15 13 12 11 10 10 10 10 10 8 7 7 6 6 6 5 5 6 6 7 8
8 7 8 9 11 14 11 12 9 8 5 5 5 3 1 4 5 5 13 19 20 18 17 15 13 12 11 11 10 9 9 8 7 6 6 6 5 5 4 5 6 6 7 9
7 6 8 8 2 13 15 14 14 10 8 6 4 2 2 4 5 5 12 17 17 17 15 14 13 12 11 11 10 9 8 7 6 5 5 5 4 4 4 5 6 7 8 9
8 8 11 8 5 9 14 17 18 11 6 9 8 4 3 1 1 4 12 16 16 16 15 14 14 13 12 11 10 9 8 7 5 4 3 3 3 4 5 6 7 8 9 9
5 7 11 14 10 14 17 20 22 18 12 12 12 9 5 3 4 7 11 15 15 15 15 15 14 13 12 11 10 9 7 6 4 3 2 2 3 4 6 6 7 8 9 10
6 6 7 6 8 17 18 21 22 25 22 16 15 17 15 9 8 9 11 13 14 14 15 16 16 14 13 11 10 8 7 5 4 2 1 2 3 5 6 7 8 9 9 10
7 4 5 5 5 13 15 22 25 26 26 24 19 17 9 6 8 9 11 13 13 14 15 16 16 15 14 12 10 8 6 5 3 2 1 2 4 5 6 8 9 9 10 10
8 6 6 4 6 7 11 20 25 23 25 24 26 23 8 9 12 11 10 10 10 11 13 15 15 15 13 11 10 8 6 5 3 1 1 3 5 6 8 9 9 10 11 12
8 5 2 5 7 8 6 3 18 23 24 22 16 7 14 12 11 8 6 7 7 7 9 12 13 13 12 10 9 7 6 4 2 0 2 3 5 7 9 9 10 11 11 12
3 5 4 4 7 7 4 4 8 13 16 16 16 10 12 15 11 6 4 4 3 4 6 9 12 13 12 11 9 7 5 3 1 1 3 4 6 8 9 11 12 12 13 14
4 4 5 5 5 6 2 5 7 7 7 9 13 15 17 16 11 7 5 5 6 6 8 10 12 13 12 10 8 6 4 2 1 3 4 6 7 9 10 11 13 13 13 14
9 7 10 9 6 6 2 6 9 8 2 12 14 15 14 8 5 9 8 7 8 9 10 12 12 11 10 9 7 5 3 2 2 4 6 7 8 9 10 12 12 13 14 15
13 10 10 8 8 7 6 10 8 2 8 13 14 12 11 11 10 9 8 8 9 10 11 11 10 9 8 7 5 3 2 2 3 5 7 8 9 9 9 11 12 13 14 15
9 7 6 8 5 2 2 3 2 7 12 11 9 11 12 10 8 7 6 7 8 9 10 9 9 9 7 6 4 3 2 2 4 6 8 9 10 10 10 11 13 12 12 12
4 2 4 3 2 1 2 4 7 10 11 11 12 11 9 8 8 6 6 6 7 8 8 8 8 8 6 5 3 2 2 3 5 7 9 9 10 11 11 10 10 11 11 12
6 7 5 3 3 5 4 6 9 11 14 13 11 8 7 8 6 5 4 6 7 7 7 7 7 7 6 6 4 2 2 3 6 8 9 9 9 10 11 11 10 12 11 12
6 8 8 6 11 8 9 10 11 13 11 11 10 7 6 5 4 4 3 4 6 8 8 7 7 7 6 5 3 2 2 4 7 8 9 8 9 9 10 11 12 12 14 18
Wind_Direction
196 209 208 201 203 207 203 208 212 217 204 225 248 266 279 284 262 244 209 180 158 129 102 88 81 77 75 68 65 67 71 80 93 100 101 96 86 79 70 62 58 56 54 51
195 217 214 202 200 207 205 206 211 209 194 250 270 277 277 276 256 229 197 178 160 142 124 103 92 82 76 73 72 72 71 73 77 83 87 92 93 79 73 66 57 52 49 45
205 206 209 204 195 199 204 206 204 196 192 227 287 275 250 212 192 193 185 171 159 149 136 121 104 92 85 78 77 80 79 80 84 92 99 102 95 87 67 56 52 46 43 39
213 208 204 199 195 195 200 201 193 188 245 243 288 287 254 228 210 181 173 168 160 150 140 129 118 103 93 88 86 85 84 82 82 86 89 87 81 75 61 50 47 46 40 35
203 206 205 198 193 194 195 179 191 207 259 273 249 261 268 230 233 198 179 170 163 157 147 136 124 113 104 97 91 89 85 80 78 79 80 82 80 78 68 56 45 38 35 31
209 213 208 201 192 187 146 138 119 114 237 253 235 233 270 233 213 179 178 173 166 159 151 140 130 122 114 106 97 94 89 84 81 80 79 80 82 78 68 52 38 28 24 20
211 216 200 186 167 171 171 160 159 183 208 233 194 224 252 283 159 184 181 176 170 164 160 153 145 136 128 118 108 104 99 94 89 87 84 84 84 77 62 44 32 21 15 12
194 190 186 179 175 171 183 183 187 192 199 192 189 231 249 64 118 204 185 174 170 169 167 161 152 144 136 127 121 116 108 103 98 93 90 85 78 69 57 42 30 21 10 4
194 176 163 169 166 163 176 197 198 189 183 216 210 239 267 141 167 188 181 175 177 175 171 164 156 150 142 135 130 125 117 112 106 100 95 83 72 64 54 40 30 19 8 353
189 149 148 132 132 149 185 164 161 190 201 217 218 232 223 171 245 183 184 182 179 174 171 166 161 153 144 136 131 127 121 117 111 102 90 81 68 57 46 35 27 12 358 350
193 146 147 162 179 172 166 177 179 188 239 231 209 181 130 283 292 228 193 184 178 176 174 170 162 153 145 141 140 136 131 124 114 102 91 79 64 47 35 28 16 1 351 346
191 155 153 173 188 194 190 189 182 186 203 223 232 170 103 293 293 229 187 179 176 176 173 168 160 154 153 152 150 146 141 131 118 105 89 73 57 35 23 18 6 353 346 340
173 153 146 160 176 187 203 199 199 204 209 211 218 209 107 38 90 163 173 173 174 173 170 168 165 165 163 161 158 154 147 136 123 106 87 66 41 21 13 5 354 345 337 330
192 184 195 194 191 185 197 201 204 205 217 219 224 223 191 174 157 158 170 175 174 175 175 175 175 174 170 166 163 158 149 140 127 112 87 47 21 9 1 352 342 334 327 322
213 204 196 190 169 182 196 198 202 212 222 230 231 234 239 218 186 171 171 172 175 178 182 183 182 178 173 168 163 158 150 146 143 137 93 26 5 358 348 340 331 322 316 315
206 181 163 165 174 195 205 204 205 214 221 232 243 245 243 178 164 165 169 173 180 186 189 188 186 181 176 170 163 159 155 152 157 154 43 4 353 346 335 327 319 313 311 314
186 171 175 172 149 168 224 216 211 217 224 228 237 244 183 174 179 176 170 171 179 186 188 189 187 182 174 167 162 161 156 154 158 142 2 350 342 330 322 315 311 314 317 317
177 157 121 136 153 214 221 213 215 222 228 227 236 244 185 176 146 132 136 150 158 176 185 184 178 171 162 154 154 151 151 156 159 212 341 338 326 318 314 313 316 320 319 315
156 137 146 177 208 248 241 183 186 206 229 224 222 183 148 134 126 117 94 98 115 152 168 167 162 156 151 150 152 155 159 164 191 312 325 323 317 313 314 318 322 320 316 312
118 168 198 199 213 239 222 149 166 170 232 190 184 163 152 157 170 155 121 102 99 111 129 138 142 143 144 147 155 164 168 194 272 313 314 311 309 311 315 317 315 314 311 308
173 187 212 219 235 265 134 149 163 191 249 148 157 150 151 157 123 114 117 107 111 119 129 136 140 141 143 148 157 167 182 245 303 305 303 305 310 314 312 310 311 309 308 307
182 185 200 202 222 241 141 156 186 126 123 135 135 132 120 109 107 113 117 122 128 130 137 141 140 137 140 149 158 174 219 281 299 301 304 309 312 311 306 306 307 309 311 312
194 193 191 198 211 60 153 182 121 143 137 131 124 121 122 122 126 126 130 137 144 146 147 148 144 141 144 151 164 208 245 293 302 306 308 308 307 305 303 303 307 311 315 316
190 137 149 173 189 132 129 122 119 126 119 117 120 122 125 128 136 139 142 153 159 160 158 154 152 153 158 165 184 229 269 294 302 304 304 304 304 305 307 306 307 313 316 315
163 163 159 163 148 131 144 142 128 113 112 111 106 105 117 128 136 151 162 173 173 168 165 163 166 169 170 175 196 224 273 295 297 298 298 301 303 305 307 308 309 309 305 304
179 179 182 193 180 169 165 151 138 128 125 126 120 107 89 99 123 136 157 170 172 170 165 165 168 170 168 176 198 244 278 282 287 293 301 305 306 307 309 312 310 301 297 301
Height
1487 1489 1481 1479 1480 1478 1480 1484 1488 1489 1491 1494 1489 1485 1481 1480 1481 1480 1481 1482 1483 1483 1483 1483 1483 1484 1485 1485 1485 1485 1485 1486 1487 1487 1488 1489 1489 1490 1490 1490 1490 1490 1489 1488
1482 1479 1475 1476 1477 1477 1479 1483 1485 1487 1492 1491 1486 1481 1475 1474 1475 1475 1476 1478 1480 1482 1483 1484 1485 1485 1486 1486 1486 1486 1487 1488 1489 1489 1490 1490 1490 1490 1491 1491 1491 1491 1490 1489
1470 1468 1472 1473 1473 1477 1479 1480 1481 1485 1489 1488 1487 1475 1469 1470 1474 1474 1474 1476 1478 1481 1483 1484 1485 1486 1487 1487 1487 1488 1488 1489 1490 1491 1492 1492 1492 1492 1493 1493 1493 1492 1490 1488
1467 1464 1467 1468 1469 1471 1476 1476 1480 1486 1488 1485 1487 1482 1466 1463 1468 1472 1473 1475 1477 1480 1482 1484 1485 1486 1487 1487 1488 1489 1490 1490 1492 1493 1494 1494 1494 1494 1494 1494 1493 1492 1490 1487
1462 1460 1461 1463 1464 1467 1470 1477 1482 1486 1489 1489 1482 1482 1462 1459 1461 1465 1469 1472 1476 1479 1482 1483 1484 1485 1487 1488 1489 1490 1491 1492 1493 1495 1495 1495 1495 1495 1495 1494 1493 1490 1488 1485
1458 1458 1458 1458 1461 1467 1472 1478 1485 1489 1491 1490 1475 1476 1461 1450 1453 1458 1466 1470 1474 1478 1481 1483 1484 1485 1487 1489 1490 1491 1492 1493 1494 1495 1495 1495 1495 1495 1495 1493 1491 1488 1485 1482
1458 1455 1453 1454 1462 1469 1469 1477 1492 1495 1493 1479 1473 1471 1456 1448 1454 1457 1462 1467 1472 1476 1480 1482 1483 1485 1487 1489 1490 1492 1492 1493 1494 1494 1495 1495 1495 1494 1493 1491 1489 1486 1483 1479
1454 1450 1449 1450 1455 1462 1465 1470 1478 1478 1475 1468 1476 1468 1449 1453 1456 1458 1460 1466 1471 1475 1479 1481 1483 1485 1487 1489 1490 1492 1492 1493 1493 1494 1494 1493 1493 1492 1490 1489 1486 1483 1480 1477
1448 1445 1446 1448 1452 1457 1465 1468 1468 1469 1470 1467 1460 1455 1448 1454 1454 1456 1459 1464 1469 1473 1477 1480 1482 1484 1486 1489 1490 1492 1492 1493 1493 1493 1493 1492 1491 1490 1488 1486 1483 1480 1477 1474
1437 1442 1445 1450 1453 1459 1460 1462 1472 1476 1472 1465 1457 1453 1445 1446 1448 1453 1456 1461 1466 1472 1476 1479 1481 1483 1486 1488 1490 1491 1492 1492 1492 1492 1491 1490 1489 1488 1486 1483 1480 1478 1474 1471
1432 1437 1449 1450 1451 1455 1461 1464 1463 1467 1464 1459 1456 1449 1443 1445 1447 1449 1453 1458 1464 1469 1474 1477 1480 1482 1484 1487 1488 1490 1490 1491 1491 1490 1490 1488 1487 1485 1483 1480 1478 1475 1471 1467
1430 1430 1443 1447 1447 1446 1448 1451 1455 1463 1464 1457 1450 1448 1445 1446 1447 1448 1451 1457 1463 1468 1472 1475 1478 1480 1483 1485 1487 1488 1489 1490 1490 1489 1488 1486 1484 1482 1480 1477 1474 1471 1468 1464
1427 1428 1442 1452 1454 1452 1448 1447 1448 1450 1452 1453 1453 1446 1445 1446 1446 1448 1451 1456 1461 1466 1470 1472 1475 1478 1481 1483 1485 1486 1487 1488 1488 1487 1485 1484 1482 1479 1477 1474 1471 1468 1464 1460
1425 1422 1425 1430 1430 1435 1441 1444 1444 1447 1449 1448 1446 1439 1441 1443 1445 1448 1451 1455 1459 1463 1466 1469 1472 1475 1478 1480 1482 1484 1485 1485 1485 1484 1483 1481 1479 1476 1473 1470 1467 1464 1460 1456
1423 1420 1420 1422 1426 1428 1432 1438 1441 1442 1439 1441 1437 1438 1435 1439 1443 1446 1449 1453 1458 1461 1464 1466 1469 1472 1475 1477 1480 1481 1482 1483 1482 1481 1480 1478 1475 1472 1470 1467 1464 1460 1455 1451
1420 1420 1423 1427 1430 1428 1429 1429 1433 1434 1434 1433 1433 1433 1433 1439 1443 1446 1448 1451 1454 1457 1460 1463 1466 1469 1471 1474 1477 1479 1480 1480 1479 1478 1476 1474 1471 1469 1466 1463 1459 1455 1450 1445
1417 1419 1421 1426 1431 1432 1432 1423 1424 1426 1425 1427 1429 1426 1435 1439 1441 1444 1446 1449 1452 1454 1457 1459 1462 1465 1468 1472 1475 1477 1477 1477 1476 1474 1472 1470 1468 1466 1463 1459 1454 1450 1445 1440
1417 1419 1423 1428 1431 1436 1411 1414 1413 1417 1417 1420 1422 1425 1429 1433 1440 1444 1446 1449 1451 1453 1456 1458 1460 1463 1466 1470 1472 1474 1474 1474 1473 1471 1469 1467 1465 1462 1458 1454 1450 1445 1440 1434
1417 1421 1428 1430 1424 1417 1412 1415 1416 1417 1416 1418 1422 1427 1432 1437 1441 1446 1446 1448 1451 1453 1454 1456 1458 1461 1464 1468 1470 1471 1471 1471 1469 1468 1466 1464 1461 1458 1454 1450 1445 1440 1434 1428
1421 1422 1426 1427 1424 1420 1406 1411 1414 1416 1414 1417 1420 1425 1430 1435 1437 1444 1447 1448 1450 1452 1453 1454 1456 1459 1463 1466 1468 1469 1468 1468 1467 1465 1463 1460 1457 1454 1450 1445 1440 1434 1428 1422
1419 1422 1421 1420 1419 1406 1408 1412 1414 1416 1409 1415 1420 1425 1430 1433 1436 1443 1445 1448 1450 1451 1452 1454 1456 1459 1462 1464 1465 1466 1466 1465 1464 1462 1460 1457 1454 1450 1446 1441 1435 1429 1422 1416
1406 1413 1415 1417 1417 1412 1411 1412 1411 1411 1415 1417 1422 1427 1431 1434 1439 1442 1445 1447 1449 1450 1452 1453 1456 1458 1460 1462 1463 1463 1463 1462 1461 1459 1456 1454 1450 1446 1441 1436 1429 1423 1417 1410
1401 1401 1401 1404 1408 1410 1410 1410 1411 1412 1415 1419 1423 1428 1432 1436 1439 1443 1445 1447 1449 1450 1451 1453 1455 1457 1459 1460 1461 1461 1460 1459 1457 1455 1453 1450 1446 1441 1436 1430 1424 1418 1411 1405
1404 1406 1406 1407 1408 1410 1410 1410 1412 1414 1417 1421 1425 1429 1433 1436 1440 1442 1445 1446 1448 1449 1450 1452 1454 1456 1457 1458 1458 1458 1457 1456 1454 1452 1449 1445 1441 1436 1430 1424 1418 1412 1406 1400
1397 1404 1404 1405 1409 1410 1411 1411 1413 1416 1419 1423 1428 1431 1434 1437 1440 1442 1443 1445 1446 1447 1449 1450 1452 1453 1454 1454 1454 1454 1453 1452 1450 1448 1444 1440 1435 1430 1424 1418 1413 1407 1401 1397
1397 1397 1398 1396 1401 1404 1409 1411 1414 1417 1421 1425 1428 1432 1434 1437 1439 1440 1441 1442 1443 1444 1446 1448 1449 1450 1451 1451 1451 1451 1450 1448 1446 1443 1439 1435 1430 1424 1418 1412 1406 1401 1397 1392